Location: Buchdorf
(48.7842°N, 10.8275°E)
Time: 11:40:39
(UTC+00:00)

Nadezhda 1 Rocket - Pass Details

Date: 09 April 2020
Orbit: 940 x 1006 km, 83.0° (Epoch: 27 May)

Event Time Altitude Azimuth Distance (km) Brightness Sun altitude
Rises 19:16:53 0° 193° (SSW) 3,721 6.9 -12.6°
Reaches altitude 10° 19:19:26 10° 195° (SSW) 2,772 6.2 -13.0°
Maximum altitude 19:25:48 73° 281° (W) 1,043 4.3 -13.9°
Drops below altitude 10° 19:32:09 10° 6° (N) 2,760 6.7 -14.8°
Sets 19:34:41 0° 9° (N) 3,703 7.4 -15.2°
